IST,Max TemperatureF,Mean TemperatureF,Min TemperatureF,Max Dew PointF,MeanDew PointF,Min DewpointF,Max Humidity, Mean Humidity, Min Humidity, Max Sea Level PressureIn, Mean Sea Level PressureIn, Min Sea Level PressureIn, Max VisibilityMiles, Mean VisibilityMiles, Min VisibilityMiles, Max Wind SpeedMPH, Mean Wind SpeedMPH, Max Gust SpeedMPH,PrecipitationIn, CloudCover, Events, WindDirDegrees
2012-9-1,96,87,78,78,73,68,79,63,34,29.74,29.66,29.59,6,4,2,16,9,26,0.00,4,,223
2012-9-2,97,86,75,79,74,70,94,71,40,29.73,29.65,29.56,6,4,1,14,8,23,0.91,4,Rain-Thunderstorm,240
2012-9-3,88,80,73,79,76,72,94,75,58,29.69,29.61,29.53,6,4,2,12,6,,0.00,6,Rain-Thunderstorm,218
2012-9-4,92,86,79,78,74,72,89,67,50,29.73,29.64,29.56,6,4,2,14,6,,0.00,5,,220
2012-9-5,96,86,77,77,73,72,83,65,39,29.76,29.68,29.59,6,4,2,14,7,,0.00,2,,222
2012-9-6,96,88,79,80,76,72,84,71,49,29.81,29.72,29.65,6,4,2,10,7,,0.00,2,,194
2012-9-7,90,82,75,79,76,73,94,77,55,29.82,29.73,29.65,6,4,2,10,4,,0.00,6,Rain-Thunderstorm,205
2012-9-8,88,80,73,79,76,72,94,86,69,29.83,29.73,29.68,6,3,1,12,4,23,0.04,8,Rain-Thunderstorm,191
2012-9-9,88,82,76,78,75,72,89,75,58,29.77,29.71,29.65,6,4,2,17,7,,0.00,5,,226
2012-9-10,95,86,77,78,74,72,94,73,42,29.80,29.72,29.65,6,4,1,16,6,,0.43,3,Rain-Thunderstorm,232
2012-9-11,95,84,74,77,74,70,94,71,40,29.80,29.71,29.62,6,4,2,15,4,,0.00,2,,206
2012-9-12,96,86,77,77,74,70,89,67,38,29.81,29.73,29.65,6,4,2,14,7,,0.00,1,Thunderstorm,222
2012-9-13,95,86,78,79,75,72,94,73,49,29.83,29.75,29.68,6,4,1,14,6,,0.55,3,Rain-Thunderstorm,216
2012-9-14,95,86,75,79,75,72,94,73,41,29.83,29.73,29.62,6,4,0,25,7,37,1.65,3,Rain-Thunderstorm,221
2012-9-15,94,83,72,78,75,72,94,74,40,29.79,29.70,29.62,6,4,2,12,5,,0.24,5,Rain-Thunderstorm,232
2012-9-16,94,86,77,79,74,70,94,69,37,29.78,29.70,29.62,6,4,2,13,6,,0.00,2,,236
2012-9-17,95,86,78,79,75,72,89,69,40,29.79,29.71,29.62,6,4,2,14,7,,0.00,2,,216
2012-9-18,95,86,78,79,75,70,94,72,40,29.80,29.73,29.65,6,4,2,12,5,,0.00,3,,232
2012-9-19,93,86,78,79,76,73,84,72,47,29.79,29.71,29.65,6,4,2,14,6,,0.00,2,,197
2012-9-20,92,85,78,79,77,73,89,77,55,29.81,29.74,29.65,6,4,2,14,5,,0.00,2,Thunderstorm,194
2012-9-21,93,82,72,79,76,72,94,81,59,29.85,29.76,29.68,6,3,1,16,7,,0.00,4,Rain-Thunderstorm,192
2012-9-22,95,86,77,81,77,75,94,77,53,29.87,29.76,29.68,6,4,2,12,6,,0.00,2,,189
2012-9-23,96,86,75,79,75,70,84,69,37,29.86,29.75,29.68,6,4,2,10,6,,0.00,1,,214
2012-9-24,96,86,77,79,75,68,89,67,34,29.81,29.73,29.65,6,4,2,12,5,,0.00,4,,243
2012-9-25,96,86,77,79,73,70,84,64,37,29.80,29.74,29.68,6,4,2,9,6,,0.00,4,,222
2012-9-26,97,86,75,81,76,70,89,76,39,29.86,29.79,29.71,6,3,2,17,3,29,0.16,4,Rain-Thunderstorm,269
2012-9-27,91,82,73,77,74,70,84,75,58,29.89,29.80,29.71,6,4,2,9,5,,0.00,6,,277
2012-9-28,91,83,75,75,73,70,83,71,50,29.83,29.77,29.68,6,4,2,12,6,,0.01,6,Rain,280
2012-9-29,85,80,76,77,74,73,89,82,67,29.82,29.74,29.65,6,2,2,9,4,,0.04,6,Rain,299
2012-9-30,90,84,77,77,75,73,94,80,50,29.78,29.71,29.65,6,3,2,9,2,,0.24,5,,246